When you browse on this site, cookies collect data to enhance your experience and personalize the content and advertising you see.
Visit our Privacy Policy to learn more. By continuing to use the site, you agree to this use of cookies and data.
  • In Portugal
  • List of Countries
  • For 7 days
  • Water Temperature
  • Weather Map
  • Weather Widgets
  • user-avatar
    Login

    Hourly Weather Sofia

    Today, 28 March, Saturday

    Time Temperature Precipitation Wind Pressure Humidity
    00:00 +4°C° 0 mm 1 mps 709 mmHg 91%
    01:00 +4°C° 0 mm 1 mps 709 mmHg 91%
    02:00 +3°C° 0 mm 0 mps 708 mmHg 89%
    03:00 +4°C° 0 mm 1 mps 708 mmHg 90%
    04:00 +3°C° 0 mm 1 mps 708 mmHg 90%
    05:00 +3°C° 0 mm 1 mps 708 mmHg 91%
    06:00 +4°C° 0 mm 1 mps 708 mmHg 89%
    07:00 +5°C° 0 mm 1 mps 708 mmHg 87%
    08:00 +6°C° 0 mm 1 mps 708 mmHg 86%
    09:00 +7°C° 0 mm 1 mps 708 mmHg 80%
    10:00 +7°C° 0 mm 2 mps 708 mmHg 73%
    11:00 +9°C° 0 mm 2 mps 708 mmHg 67%
    12:00 +9°C° 0 mm 2 mps 708 mmHg 66%
    13:00 +10°C° 0 mm 2 mps 708 mmHg 64%
    14:00 +12°C° 0 mm 2 mps 707 mmHg 63%
    15:00 +10°C° 0 mm 2 mps 707 mmHg 65%
    16:00 +10°C° 0 mm 2 mps 707 mmHg 67%
    17:00 +10°C° 0 mm 2 mps 707 mmHg 70%
    18:00 +9°C° 0 mm 2 mps 707 mmHg 74%
    19:00 +8°C° 0 mm 1 mps 707 mmHg 79%
    20:00 +7°C° 0 mm 1 mps 707 mmHg 84%
    21:00 +7°C° 0 mm 1 mps 707 mmHg 85%
    22:00 +5°C° 0 mm 0 mps 707 mmHg 86%
    23:00 +5°C° 0 mm 0 mps 707 mmHg 87%

    Tomorrow, 29 March, Sunday

    Time Temperature Precipitation Wind Pressure Humidity
    00:00 +5°C° 0 mm 0 mps 706 mmHg 87%
    01:00 +5°C° 0 mm 1 mps 706 mmHg 88%
    02:00 +5°C° 0 mm 1 mps 706 mmHg 88%
    03:00 +5°C° 0 mm 1 mps 706 mmHg 89%
    04:00 +5°C° 0 mm 1 mps 706 mmHg 89%
    05:00 +4°C° 0 mm 1 mps 706 mmHg 89%
    06:00 +5°C° 0 mm 1 mps 706 mmHg 87%
    07:00 +6°C° 0 mm 1 mps 706 mmHg 85%
    08:00 +7°C° 0 mm 1 mps 706 mmHg 82%
    09:00 +8°C° 0 mm 1 mps 706 mmHg 76%
    10:00 +10°C° 0 mm 1 mps 706 mmHg 69%
    11:00 +10°C° 0 mm 2 mps 706 mmHg 63%
    12:00 +12°C° 0.1 mm 2 mps 706 mmHg 60%
    13:00 +13°C° 0.1 mm 2 mps 706 mmHg 58%
    14:00 +13°C° 0.1 mm 2 mps 706 mmHg 55%
    15:00 +13°C° 0.1 mm 2 mps 705 mmHg 56%
    16:00 +13°C° 0.1 mm 2 mps 705 mmHg 57%
    17:00 +13°C° 0.1 mm 2 mps 705 mmHg 59%
    18:00 +10°C° 0 mm 2 mps 705 mmHg 65%
    19:00 +10°C° 0 mm 1 mps 705 mmHg 71%
    20:00 +8°C° 0 mm 1 mps 706 mmHg 77%
    21:00 +8°C° 0 mm 1 mps 706 mmHg 77%
    22:00 +7°C° 0 mm 1 mps 706 mmHg 78%
    23:00 +6°C° 0 mm 0 mps 706 mmHg 79%

    Day after tomorrow, 30 March, Monday

    Time Temperature Precipitation Wind Pressure Humidity
    00:00 +5°C° 0 mm 0 mps 706 mmHg 80%
    01:00 +5°C° 0 mm 0 mps 706 mmHg 80%
    02:00 +5°C° 0 mm 0 mps 706 mmHg 80%
    03:00 +5°C° 0 mm 0 mps 706 mmHg 81%
    04:00 +4°C° 0 mm 0 mps 706 mmHg 81%
    05:00 +4°C° 0 mm 0 mps 706 mmHg 82%
    06:00 +5°C° 0 mm 0 mps 706 mmHg 79%
    07:00 +6°C° 0 mm 0 mps 706 mmHg 76%
    08:00 +7°C° 0 mm 0 mps 706 mmHg 73%
    09:00 +9°C° 0 mm 0 mps 707 mmHg 67%
    10:00 +12°C° 0 mm 1 mps 707 mmHg 61%
    11:00 +14°C° 0 mm 1 mps 707 mmHg 55%
    12:00 +14°C° 0 mm 1 mps 707 mmHg 52%
    13:00 +15°C° 0 mm 1 mps 707 mmHg 50%
    14:00 +15°C° 0 mm 1 mps 706 mmHg 47%
    15:00 +15°C° 0.1 mm 1 mps 706 mmHg 50%
    16:00 +14°C° 0.1 mm 1 mps 706 mmHg 52%
    17:00 +14°C° 0.1 mm 1 mps 705 mmHg 54%
    18:00 +13°C° 0 mm 1 mps 705 mmHg 62%
    19:00 +11°C° 0 mm 1 mps 706 mmHg 69%
    20:00 +9°C° 0 mm 2 mps 706 mmHg 76%
    21:00 +8°C° 0 mm 2 mps 706 mmHg 78%
    22:00 +9°C° 0 mm 1 mps 706 mmHg 80%
    23:00 +9°C° 0 mm 1 mps 706 mmHg 81%

    31 March, Tuesday

    Time Temperature Precipitation Wind Pressure Humidity
    00:00 +8°C° 0.1 mm 2 mps 706 mmHg 83%
    01:00 +8°C° 0.1 mm 2 mps 706 mmHg 86%
    02:00 +7°C° 0.1 mm 2 mps 706 mmHg 88%
    03:00 +7°C° 0.5 mm 2 mps 706 mmHg 89%
    04:00 +7°C° 0.5 mm 2 mps 707 mmHg 90%
    05:00 +6°C° 0.5 mm 2 mps 707 mmHg 92%
    06:00 +6°C° 0.8 mm 2 mps 707 mmHg 91%
    07:00 +5°C° 0.8 mm 2 mps 707 mmHg 91%
    08:00 +4°C° 0.8 mm 3 mps 707 mmHg 91%
    09:00 +4°C° 0.3 mm 3 mps 707 mmHg 89%
    10:00 +4°C° 0.3 mm 3 mps 708 mmHg 87%
    11:00 +4°C° 0.3 mm 3 mps 708 mmHg 85%
    12:00 +4°C° 0.1 mm 3 mps 708 mmHg 84%
    13:00 +4°C° 0.1 mm 3 mps 708 mmHg 84%
    14:00 +4°C° 0.1 mm 3 mps 708 mmHg 84%
    15:00 +4°C° 0 mm 3 mps 708 mmHg 83%
    16:00 +4°C° 0 mm 3 mps 708 mmHg 82%
    17:00 +4°C° 0 mm 3 mps 708 mmHg 82%
    18:00 +4°C° 0 mm 3 mps 708 mmHg 82%
    19:00 +4°C° 0 mm 2 mps 709 mmHg 83%
    20:00 +3°C° 0 mm 2 mps 709 mmHg 83%
    21:00 +3°C° 0 mm 2 mps 709 mmHg 82%
    22:00 +2°C° 0 mm 2 mps 710 mmHg 81%
    23:00 +2°C° 0 mm 2 mps 710 mmHg 80%

    1 April, Wednesday

    Time Temperature Precipitation Wind Pressure Humidity
    00:00 +1°C° 0 mm 2 mps 710 mmHg 79%
    01:00 +1°C° 0 mm 2 mps 710 mmHg 77%
    02:00 -1°C° 0 mm 2 mps 710 mmHg 75%
    03:00 -1°C° 0.3 mm 2 mps 709 mmHg 81%
    04:00 -2°C° 0.3 mm 2 mps 709 mmHg 86%
    05:00 -2°C° 0.3 mm 2 mps 709 mmHg 91%
    06:00 -2°C° 0.4 mm 2 mps 709 mmHg 90%
    07:00 -2°C° 0.4 mm 3 mps 709 mmHg 90%
    08:00 -2°C° 0.4 mm 3 mps 709 mmHg 89%
    09:00 -2°C° 0.5 mm 3 mps 709 mmHg 88%
    10:00 -1°C° 0.5 mm 3 mps 709 mmHg 86%
    11:00 -1°C° 0.5 mm 3 mps 709 mmHg 85%
    12:00 -1°C° 0.9 mm 3 mps 710 mmHg 85%
    13:00 0°C° 0.9 mm 3 mps 710 mmHg 84%
    14:00 +1°C° 0.9 mm 2 mps 710 mmHg 84%
    15:00 +1°C° 0.4 mm 2 mps 709 mmHg 85%
    16:00 +1°C° 0.4 mm 2 mps 709 mmHg 85%
    17:00 +2°C° 0.4 mm 1 mps 709 mmHg 86%
    18:00 +2°C° 0.2 mm 1 mps 710 mmHg 89%
    19:00 +1°C° 0.2 mm 1 mps 710 mmHg 92%
    20:00 0°C° 0.2 mm 0 mps 710 mmHg 95%
    21:00 0°C° 0.1 mm 1 mps 710 mmHg 95%
    22:00 0°C° 0.1 mm 1 mps 711 mmHg 96%
    23:00 0°C° 0.1 mm 1 mps 711 mmHg 96%

    2 April, Thursday

    Time Temperature Precipitation Wind Pressure Humidity
    00:00 0°C° 0.1 mm 1 mps 711 mmHg 96%
    01:00 0°C° 0.1 mm 1 mps 711 mmHg 96%
    02:00 0°C° 0.1 mm 1 mps 711 mmHg 96%
    03:00 -1°C° 0 mm 1 mps 711 mmHg 95%
    04:00 -1°C° 0 mm 1 mps 711 mmHg 95%
    05:00 -1°C° 0 mm 1 mps 711 mmHg 95%
    06:00 -1°C° 0 mm 1 mps 711 mmHg 92%
    07:00 -1°C° 0 mm 0 mps 711 mmHg 90%
    08:00 0°C° 0 mm 0 mps 711 mmHg 87%
    09:00 +1°C° 0 mm 0 mps 711 mmHg 84%
    10:00 +3°C° 0 mm 0 mps 711 mmHg 82%
    11:00 +4°C° 0 mm 0 mps 711 mmHg 79%
    12:00 +6°C° 0 mm 1 mps 711 mmHg 76%
    13:00 +7°C° 0 mm 1 mps 711 mmHg 74%
    14:00 +8°C° 0 mm 1 mps 711 mmHg 71%
    15:00 +8°C° 0 mm 1 mps 710 mmHg 71%
    16:00 +8°C° 0 mm 1 mps 710 mmHg 71%
    17:00 +8°C° 0 mm 1 mps 710 mmHg 72%
    18:00 +6°C° 0 mm 1 mps 709 mmHg 76%
    19:00 +5°C° 0 mm 1 mps 709 mmHg 81%
    20:00 +3°C° 0 mm 1 mps 709 mmHg 86%
    21:00 +3°C° 0 mm 1 mps 710 mmHg 87%
    22:00 +3°C° 0 mm 1 mps 710 mmHg 88%
    23:00 +2°C° 0 mm 1 mps 710 mmHg 88%
    Show more